Weather History for McComb, MS

Change the Weather History Date:

Friday, October 18, 2013

  Actual Average Record
Temperature  
Mean Temperature 62 °F -  
Max Temperature 72 °F 77 °F 89 °F (1953)
Min Temperature 53 °F 52 °F 35 °F (1948)
Degree Days  
Heating Degree Days 3    
Growing Degree Days 12 (Base 50)    
Moisture  
Dew Point 54 °F    
Average Humidity 77    
Maximum Humidity 96    
Minimum Humidity 52    
Precipitation  
Precipitation 0.00 in - - ()
Sea Level Pressure  
Sea Level Pressure 30.00 in    
Wind  
Wind Speed 2 mph (NNE)    
Max Wind Speed 9 mph    
Max Gust Speed -    
Visibility 10 miles    
Events      
Averages and records for this station are not official NWS values.
T = Trace of Precipitation, MM = Missing Value Source: NWS Daily Summary

Daily Weather History Graph

Daily Weather History Graph

Search for Another Location

Airport:

Trip Planner

Search our weather history database for the weather conditions in past years. The results will help you decide how hot, cold, wet, or windy it might be!

Date:

Astronomy

Oct. 18, 2013 Rise Set
Actual Time 7:06 AM CDT 6:26 PM CDT
Civil Twilight 6:42 AM CDT 6:50 PM CDT
Nautical Twilight 6:14 AM CDT 7:19 PM CDT
Astronomical Twilight 5:46 AM CDT 7:47 PM CDT
Moon 6:18 PM CDT (10/18) 6:42 AM CDT (10/18)
Length of Visible Light 12h 08m
Length of Day
11h 19m
Full, 100% of the Moon is Illuminated
Oct 18
Full
Oct 18
Full
Oct 26
Last Quarter
Nov 3
New
Nov 9
First Quarter

Hourly Weather History & Observations

Time (CDT) Temp. Dew Point Humidity Pressure Visibility Wind Dir Wind Speed Gust Speed Precip Events Conditions
12:53 AM 55.9 °F 54.0 °F 93% 30.00 in 10.0 mi Calm Calm - N/A   Clear
1:53 AM 55.9 °F 54.0 °F 93% 30.01 in 10.0 mi Calm Calm - N/A   Clear
2:53 AM 55.0 °F 53.1 °F 93% 30.00 in 10.0 mi North 3.5 mph - N/A   Clear
3:53 AM 53.1 °F 52.0 °F 96% 30.00 in 10.0 mi North 3.5 mph - N/A   Clear
4:53 AM 55.0 °F 53.1 °F 93% 30.01 in 10.0 mi North 4.6 mph - N/A   Clear
5:53 AM 53.1 °F 51.1 °F 93% 30.02 in 10.0 mi North 4.6 mph - N/A   Clear
6:53 AM 53.1 °F 51.1 °F 93% 30.04 in 10.0 mi North 3.5 mph - N/A   Clear
7:53 AM 55.0 °F 53.1 °F 93% 30.04 in 10.0 mi Calm Calm - N/A   Clear
8:53 AM 59.0 °F 55.0 °F 87% 30.07 in 10.0 mi NNE 3.5 mph - N/A   Clear
9:53 AM 64.0 °F 52.0 °F 65% 30.06 in 10.0 mi NE 8.1 mph - N/A   Clear
10:53 AM 66.9 °F 51.1 °F 57% 30.05 in 10.0 mi North 9.2 mph - N/A   Clear
11:53 AM 68.0 °F 50.0 °F 52% 30.04 in 10.0 mi ENE 8.1 mph - N/A   Clear
12:53 PM 69.1 °F 51.1 °F 53% 30.01 in 10.0 mi Variable 4.6 mph - N/A   Clear
1:53 PM 69.1 °F 52.0 °F 54% 29.99 in 10.0 mi Variable 4.6 mph - N/A   Clear
2:53 PM 71.1 °F 55.0 °F 57% 29.95 in 10.0 mi Variable 5.8 mph - N/A   Clear
3:53 PM 70.0 °F 53.1 °F 55% 29.94 in 10.0 mi Variable 3.5 mph - N/A   Clear
4:53 PM 69.1 °F 55.9 °F 63% 29.95 in 10.0 mi Calm Calm - N/A   Clear
5:53 PM 68.0 °F 57.0 °F 68% 29.96 in 10.0 mi Calm Calm - N/A   Overcast
6:53 PM 66.0 °F 57.9 °F 75% 29.96 in 10.0 mi Calm Calm - N/A   Overcast
7:53 PM 64.9 °F 59.0 °F 81% 29.98 in 10.0 mi Calm Calm - N/A   Overcast
8:53 PM 64.9 °F 57.9 °F 78% 29.99 in 10.0 mi Calm Calm - 0.00 in   Scattered Clouds
9:53 PM 63.0 °F 59.0 °F 87% 29.99 in 10.0 mi Calm Calm - N/A   Mostly Cloudy
10:53 PM 63.0 °F 57.9 °F 84% 29.96 in 10.0 mi Calm Calm - 0.00 in   Partly Cloudy
11:53 PM 62.1 °F 57.0 °F 84% 29.96 in 10.0 mi Calm Calm - N/A   Mostly Cloudy